• In Uzbekistan
  • List of Countries
  • For 7 days
  • Water Temperature
  • Weather Map
  • Weather Widgets
  • user-avatar
    Login

    Hourly Weather Changzhou

    Today, 18 September, Wednesday

    Time Temperature Precipitation Wind Pressure Humidity
    00:00 +22°C° 0 mm 3 mps 762 mmHg 77%
    01:00 +22°C° 0 mm 3 mps 762 mmHg 78%
    02:00 +21°C° 0 mm 2 mps 762 mmHg 80%
    03:00 +21°C° 0 mm 3 mps 762 mmHg 79%
    04:00 +21°C° 0 mm 3 mps 762 mmHg 77%
    05:00 +20°C° 0 mm 3 mps 763 mmHg 76%
    06:00 +22°C° 0 mm 3 mps 763 mmHg 71%
    07:00 +23°C° 0 mm 4 mps 764 mmHg 66%
    08:00 +25°C° 0 mm 4 mps 764 mmHg 60%
    09:00 +26°C° 0 mm 5 mps 764 mmHg 56%
    10:00 +28°C° 0 mm 5 mps 764 mmHg 52%
    11:00 +29°C° 0 mm 5 mps 764 mmHg 49%
    12:00 +29°C° 0 mm 5 mps 764 mmHg 48%
    13:00 +30°C° 0 mm 5 mps 764 mmHg 48%
    14:00 +30°C° 0 mm 6 mps 763 mmHg 47%
    15:00 +29°C° 0 mm 6 mps 763 mmHg 55%
    16:00 +28°C° 0 mm 6 mps 764 mmHg 63%
    17:00 +27°C° 0 mm 6 mps 764 mmHg 71%
    18:00 +24°C° 0 mm 6 mps 764 mmHg 72%
    19:00 +23°C° 0 mm 5 mps 765 mmHg 73%
    20:00 +22°C° 0 mm 5 mps 765 mmHg 74%
    21:00 +21°C° 0 mm 5 mps 765 mmHg 73%
    22:00 +21°C° 0 mm 4 mps 765 mmHg 73%
    23:00 +20°C° 0 mm 4 mps 765 mmHg 72%

    Tomorrow, 19 September, Thursday

    Time Temperature Precipitation Wind Pressure Humidity
    00:00 +19°C° 0 mm 4 mps 765 mmHg 72%
    01:00 +19°C° 0 mm 4 mps 764 mmHg 72%
    02:00 +18°C° 0 mm 3 mps 764 mmHg 72%
    03:00 +18°C° 0 mm 3 mps 764 mmHg 73%
    04:00 +18°C° 0 mm 3 mps 764 mmHg 74%
    05:00 +17°C° 0 mm 3 mps 764 mmHg 75%
    06:00 +18°C° 0 mm 4 mps 764 mmHg 74%
    07:00 +19°C° 0 mm 4 mps 765 mmHg 72%
    08:00 +20°C° 0 mm 4 mps 765 mmHg 70%
    09:00 +22°C° 0 mm 4 mps 765 mmHg 67%
    10:00 +23°C° 0 mm 4 mps 765 mmHg 63%
    11:00 +26°C° 0 mm 4 mps 764 mmHg 60%
    12:00 +26°C° 0 mm 4 mps 764 mmHg 58%
    13:00 +27°C° 0 mm 4 mps 763 mmHg 57%
    14:00 +27°C° 0 mm 4 mps 762 mmHg 55%
    15:00 +27°C° 0 mm 4 mps 762 mmHg 58%
    16:00 +26°C° 0 mm 4 mps 762 mmHg 61%
    17:00 +25°C° 0 mm 4 mps 761 mmHg 64%
    18:00 +23°C° 0 mm 4 mps 762 mmHg 66%
    19:00 +22°C° 0 mm 4 mps 762 mmHg 67%
    20:00 +20°C° 0 mm 4 mps 763 mmHg 69%
    21:00 +20°C° 0 mm 3 mps 762 mmHg 71%
    22:00 +20°C° 0 mm 3 mps 762 mmHg 74%
    23:00 +19°C° 0 mm 3 mps 762 mmHg 76%

    Day after tomorrow, 20 September, Friday

    Time Temperature Precipitation Wind Pressure Humidity
    00:00 +19°C° 0 mm 3 mps 762 mmHg 78%
    01:00 +18°C° 0 mm 2 mps 762 mmHg 80%
    02:00 +18°C° 0 mm 2 mps 761 mmHg 82%
    03:00 +18°C° 0 mm 2 mps 761 mmHg 83%
    04:00 +17°C° 0 mm 2 mps 761 mmHg 85%
    05:00 +17°C° 0 mm 2 mps 761 mmHg 86%
    06:00 +18°C° 0 mm 3 mps 761 mmHg 82%
    07:00 +19°C° 0 mm 3 mps 761 mmHg 78%
    08:00 +21°C° 0 mm 3 mps 762 mmHg 74%
    09:00 +22°C° 0 mm 3 mps 761 mmHg 68%
    10:00 +25°C° 0 mm 3 mps 761 mmHg 61%
    11:00 +26°C° 0 mm 3 mps 761 mmHg 55%
    12:00 +27°C° 0 mm 3 mps 760 mmHg 54%
    13:00 +27°C° 0 mm 4 mps 760 mmHg 54%
    14:00 +27°C° 0 mm 4 mps 759 mmHg 53%
    15:00 +27°C° 0 mm 4 mps 759 mmHg 56%
    16:00 +26°C° 0 mm 4 mps 759 mmHg 60%
    17:00 +25°C° 0 mm 4 mps 759 mmHg 63%
    18:00 +23°C° 0 mm 4 mps 759 mmHg 65%
    19:00 +22°C° 0 mm 4 mps 760 mmHg 66%
    20:00 +21°C° 0 mm 4 mps 760 mmHg 68%
    21:00 +21°C° 0 mm 4 mps 760 mmHg 70%
    22:00 +20°C° 0 mm 3 mps 760 mmHg 72%
    23:00 +20°C° 0 mm 3 mps 760 mmHg 73%

    21 September, Saturday

    Time Temperature Precipitation Wind Pressure Humidity
    00:00 +20°C° 0 mm 3 mps 760 mmHg 76%
    01:00 +19°C° 0 mm 3 mps 760 mmHg 78%
    02:00 +19°C° 0 mm 3 mps 759 mmHg 81%
    03:00 +19°C° 0 mm 3 mps 759 mmHg 81%
    04:00 +19°C° 0 mm 4 mps 759 mmHg 81%
    05:00 +19°C° 0 mm 4 mps 759 mmHg 82%
    06:00 +20°C° 0 mm 4 mps 759 mmHg 78%
    07:00 +21°C° 0 mm 5 mps 760 mmHg 74%
    08:00 +22°C° 0 mm 6 mps 760 mmHg 71%
    09:00 +23°C° 0 mm 6 mps 760 mmHg 67%
    10:00 +24°C° 0 mm 6 mps 759 mmHg 64%
    11:00 +27°C° 0 mm 6 mps 759 mmHg 61%
    12:00 +27°C° 0.1 mm 7 mps 759 mmHg 59%
    13:00 +27°C° 0.1 mm 7 mps 759 mmHg 57%
    14:00 +27°C° 0.1 mm 7 mps 758 mmHg 55%
    15:00 +27°C° 0 mm 7 mps 759 mmHg 59%
    16:00 +26°C° 0 mm 6 mps 759 mmHg 63%
    17:00 +24°C° 0 mm 6 mps 759 mmHg 67%
    18:00 +23°C° 0 mm 5 mps 760 mmHg 68%
    19:00 +22°C° 0 mm 5 mps 760 mmHg 69%
    20:00 +21°C° 0 mm 4 mps 761 mmHg 70%
    21:00 +21°C° 0 mm 4 mps 761 mmHg 73%
    22:00 +20°C° 0 mm 3 mps 761 mmHg 75%
    23:00 +20°C° 0 mm 3 mps 761 mmHg 78%

    22 September, Sunday

    Time Temperature Precipitation Wind Pressure Humidity
    00:00 +20°C° 0 mm 3 mps 761 mmHg 78%
    01:00 +19°C° 0 mm 3 mps 761 mmHg 78%
    02:00 +19°C° 0 mm 3 mps 761 mmHg 78%
    03:00 +19°C° 0 mm 3 mps 761 mmHg 78%
    04:00 +18°C° 0 mm 3 mps 761 mmHg 78%
    05:00 +18°C° 0 mm 3 mps 761 mmHg 78%
    06:00 +19°C° 0 mm 3 mps 762 mmHg 76%
    07:00 +20°C° 0 mm 3 mps 762 mmHg 74%
    08:00 +21°C° 0 mm 3 mps 763 mmHg 72%
    09:00 +23°C° 0 mm 4 mps 763 mmHg 65%
    10:00 +26°C° 0 mm 4 mps 763 mmHg 58%
    11:00 +28°C° 0 mm 5 mps 763 mmHg 51%
    12:00 +28°C° 0 mm 5 mps 763 mmHg 49%
    13:00 +29°C° 0 mm 5 mps 763 mmHg 47%
    14:00 +29°C° 0 mm 5 mps 763 mmHg 44%
    15:00 +28°C° 0 mm 5 mps 763 mmHg 47%
    16:00 +28°C° 0 mm 4 mps 763 mmHg 50%
    17:00 +27°C° 0 mm 4 mps 763 mmHg 53%
    18:00 +26°C° 0 mm 3 mps 763 mmHg 54%
    19:00 +24°C° 0 mm 3 mps 764 mmHg 55%
    20:00 +22°C° 0 mm 3 mps 764 mmHg 56%
    21:00 +23°C° 0 mm 2 mps 764 mmHg 58%
    22:00 +21°C° 0 mm 2 mps 764 mmHg 61%
    23:00 +21°C° 0 mm 1 mps 765 mmHg 63%

    23 September, Monday

    Time Temperature Precipitation Wind Pressure Humidity
    00:00 +21°C° 0 mm 1 mps 764 mmHg 64%
    01:00 +19°C° 0 mm 0 mps 764 mmHg 65%
    02:00 +18°C° 0 mm 0 mps 764 mmHg 66%
    03:00 +18°C° 0 mm 0 mps 764 mmHg 66%
    04:00 +18°C° 0 mm 0 mps 765 mmHg 66%
    05:00 +20°C° 0 mm 1 mps 765 mmHg 67%
    06:00 +21°C° 0 mm 1 mps 765 mmHg 64%
    07:00 +22°C° 0 mm 1 mps 766 mmHg 61%
    08:00 +23°C° 0 mm 1 mps 766 mmHg 58%
    09:00 +25°C° 0 mm 1 mps 766 mmHg 54%
    10:00 +26°C° 0 mm 2 mps 766 mmHg 50%
    11:00 +28°C° 0 mm 2 mps 766 mmHg 46%
    12:00 +29°C° 0 mm 2 mps 766 mmHg 44%
    13:00 +29°C° 0 mm 2 mps 765 mmHg 43%
    14:00 +30°C° 0 mm 2 mps 765 mmHg 41%
    15:00 +29°C° 0 mm 3 mps 765 mmHg 44%
    16:00 +28°C° 0 mm 3 mps 765 mmHg 47%
    17:00 +27°C° 0 mm 4 mps 765 mmHg 51%
    18:00 +26°C° 0 mm 4 mps 765 mmHg 54%
    19:00 +23°C° 0 mm 4 mps 765 mmHg 58%
    20:00 +22°C° 0 mm 4 mps 766 mmHg 62%
    21:00 +22°C° 0 mm 3 mps 766 mmHg 63%
    22:00 +21°C° 0 mm 3 mps 766 mmHg 64%
    23:00 +21°C° 0 mm 2 mps 766 mmHg 66%
    Show more